User: anonymous   Login
Location: Brno
(49.2000°N, 16.6330°E)
Time: 04:18:30
(UTC+02:00)
Language:

Cosmos 1603 - Orbit

View from above orbital plane
View from above orbital plane
View from above satellite
View from above satellite

Ground track
Ground track

The orbit data is extracted from the following two-line orbital elements,

1 15333U 84106A   14295.50632743  .00000372  00000-0  22044-3 0  1129
2 15333 071.0268 320.6203 0021468 244.7222 278.6635 14.13951547551335
Epoch (UTC): 22 October 2014 12:09:06
Eccentricity: 0.0021468
inclination: 71.0268°
perigee height: 830 km
apogee height: 861 km
right ascension of ascending node: 320.6203°
argument of perigee: 244.7222°
revolutions per day: 14.13951547
mean anomaly at epoch: 278.6635°
orbit number at epoch: 55133

The dashed part of the orbit path shows where the satellite is in the earth's shadow,  

DLR